TimeHST,TemperatureF,Dew PointF,Humidity,Sea Level PressureIn,VisibilityMPH,Wind Direction,Wind SpeedMPH,Gust SpeedMPH,PrecipitationIn,Events,Conditions,WindDirDegrees,DateUTC
12:53 AM,73.9,68.0,82,29.95,10.0,Calm,Calm,-,N/A,,Clear,0,2013-09-15 10:53:00
1:53 AM,71.1,68.0,90,29.94,10.0,Calm,Calm,-,N/A,,Clear,0,2013-09-15 11:53:00
2:53 AM,70.0,68.0,93,29.94,10.0,ENE,3.5,-,N/A,,Clear,60,2013-09-15 12:53:00
3:53 AM,71.1,68.0,90,29.93,10.0,ENE,3.5,-,N/A,,Scattered Clouds,70,2013-09-15 13:53:00
4:53 AM,71.1,68.0,90,29.94,10.0,Calm,Calm,-,N/A,,Partly Cloudy,0,2013-09-15 14:53:00
5:53 AM,70.0,68.0,93,29.95,10.0,Calm,Calm,-,N/A,,Clear,0,2013-09-15 15:53:00
6:39 AM,71.6,69.8,94,29.95,10.0,ENE,3.5,-,N/A,,Mostly Cloudy,70,2013-09-15 16:39:00
6:53 AM,73.0,71.1,93,29.97,10.0,Calm,Calm,-,0.00,,Overcast,0,2013-09-15 16:53:00
7:53 AM,77.0,71.1,82,29.99,10.0,Variable,3.5,-,N/A,,Mostly Cloudy,0,2013-09-15 17:53:00
8:53 AM,82.0,71.1,69,29.99,10.0,Variable,4.6,-,N/A,,Scattered Clouds,0,2013-09-15 18:53:00
9:53 AM,84.0,66.9,56,30.00,10.0,ESE,11.5,18.4,N/A,,Partly Cloudy,110,2013-09-15 19:53:00
10:53 AM,82.9,71.1,67,30.01,10.0,SE,9.2,16.1,N/A,,Clear,130,2013-09-15 20:53:00
11:53 AM,87.1,66.0,49,29.99,10.0,East,8.1,19.6,N/A,,Partly Cloudy,100,2013-09-15 21:53:00
12:53 PM,84.0,70.0,63,29.98,10.0,ESE,13.8,21.9,N/A,,Clear,120,2013-09-15 22:53:00
1:53 PM,84.9,70.0,61,29.96,10.0,SE,12.7,21.9,N/A,,Clear,130,2013-09-15 23:53:00
2:53 PM,88.0,64.9,46,29.94,10.0,NE,8.1,-,N/A,,Clear,50,2013-09-16 00:53:00
3:53 PM,86.0,64.9,49,29.94,10.0,ENE,8.1,-,N/A,,Clear,70,2013-09-16 01:53:00
4:53 PM,84.0,66.0,55,29.95,10.0,ENE,12.7,19.6,N/A,,Clear,70,2013-09-16 02:53:00
5:53 PM,81.0,66.0,60,29.96,10.0,ENE,9.2,-,N/A,,Clear,60,2013-09-16 03:53:00
6:53 PM,78.1,66.9,68,29.98,10.0,Variable,5.8,-,N/A,,Clear,0,2013-09-16 04:53:00
7:53 PM,77.0,66.0,69,29.99,10.0,Variable,3.5,-,N/A,,Clear,0,2013-09-16 05:53:00
8:53 PM,75.9,66.9,74,30.00,10.0,ENE,6.9,-,N/A,,Clear,70,2013-09-16 06:53:00
9:53 PM,75.9,66.0,71,30.02,10.0,Variable,3.5,-,N/A,,Clear,0,2013-09-16 07:53:00
10:53 PM,75.0,66.0,73,30.03,10.0,ENE,6.9,-,N/A,,Clear,70,2013-09-16 08:53:00
11:53 PM,75.9,66.0,71,30.02,10.0,ENE,4.6,-,N/A,,Clear,70,2013-09-16 09:53:00